Location: Gaast
(52.9002°N, 5.8891°E)
Time: 01:47:59
(UTC+00:00)

Cosmos 1400 Rocket - Pass Details

Date: 18 November 2025
Orbit: 476 x 513 km, 81.1° (Epoch: 13 December)

Event Time Altitude Azimuth Distance (km) Brightness Sun altitude
Rises 18:39:28 0° 213° (SSW) 2,620 6.7 -27.0°
Reaches altitude 10° 18:41:43 10° 222° (SW) 1,734 5.8 -27.4°
Enters shadow 18:44:47 35° 272° (W) 845 4.2 -27.8°
